APRIZESAT 8

Last updated on Fri Dec 29 2023 00:03:29 GMT+0000 (Coordinated Universal Time)

1 39425U 13066K 23362.37068480 .00002244 00000+0 27431-3 0 9992 2 39425 97.7072 315.5351 0050217 11.1354 349.0959 14.83342439546038
UTC large
Height (km)
Speed (km/s)
/
Latitude / Longitude
Inclination (degrees)
Orbital Period (minutes)
Azimuth
Elevation
Range (km)
Doppler Factor

Next 0 passes for location: London (51.5072 / 0.1276)

Sorry there are no passes over London.